Total_Precipitation_Accumulation
0.06 0.05 0.04 0.02 0.02 0.01 0.00 0.01 0.04 0.04 0.01 0.00 0.00 0.00 0.00 0.00 0.00 0.00 0.00 0.00 0.00 0.00 0.00 0.00 0.00 0.00 0.00 0.00 0.00 0.00 0.00 0.01 0.01 0.01 0.02 0.03 0.04 0.04
0.03 0.03 0.02 0.03 0.03 0.02 0.01 0.00 0.01 0.02 0.01 0.00 0.00 0.00 0.00 0.00 0.00 0.00 0.00 0.00 0.00 0.00 0.00 0.00 0.00 0.00 0.00 0.00 0.00 0.00 0.00 0.00 0.00 0.00 0.00 0.01 0.03 0.05
0.02 0.02 0.02 0.02 0.01 0.01 0.00 0.00 0.00 0.00 0.00 0.00 0.00 0.00 0.00 0.00 0.00 0.00 0.00 0.00 0.00 0.00 0.00 0.00 0.00 0.00 0.00 0.00 0.00 0.00 0.00 0.00 0.00 0.00 0.01 0.02 0.04 0.04
0.00 0.00 0.00 0.00 0.00 0.00 0.00 0.00 0.00 0.00 0.00 0.00 0.00 0.00 0.00 0.00 0.00 0.00 0.00 0.00 0.00 0.00 0.01 0.01 0.00 0.01 0.00 0.00 0.01 0.01 0.01 0.01 0.00 0.00 0.02 0.02 0.04 0.03
0.00 0.00 0.00 0.00 0.00 0.00 0.00 0.00 0.00 0.00 0.00 0.00 0.00 0.00 0.00 0.00 0.00 0.01 0.01 0.00 0.00 0.00 0.01 0.01 0.01 0.01 0.01 0.01 0.01 0.01 0.00 0.00 0.00 0.01 0.07 0.09 0.04 0.06
0.00 0.00 0.00 0.00 0.00 0.00 0.00 0.00 0.00 0.00 0.00 0.01 0.00 0.01 0.00 0.00 0.01 0.02 0.03 0.02 0.02 0.01 0.01 0.01 0.02 0.02 0.01 0.01 0.00 0.01 0.01 0.01 0.01 0.00 0.00 0.18 0.26 0.10
0.00 0.00 0.00 0.00 0.00 0.00 0.00 0.00 0.00 0.01 0.01 0.01 0.01 0.02 0.02 0.02 0.03 0.04 0.04 0.02 0.01 0.02 0.03 0.03 0.04 0.03 0.03 0.03 0.01 0.01 0.02 0.02 0.01 0.01 0.01 0.02 0.25 0.40
0.00 0.00 0.00 0.00 0.00 0.00 0.00 0.00 0.00 0.01 0.04 0.03 0.03 0.03 0.03 0.05 0.05 0.06 0.06 0.05 0.03 0.04 0.08 0.06 0.05 0.07 0.08 0.12 0.14 0.12 0.10 0.08 0.05 0.01 0.01 0.00 0.04 0.21
0.00 0.00 0.00 0.00 0.00 0.00 0.00 0.00 0.00 0.01 0.03 0.03 0.05 0.06 0.07 0.06 0.05 0.05 0.05 0.07 0.06 0.03 0.05 0.04 0.03 0.04 0.01 0.01 0.02 0.02 0.02 0.04 0.09 0.06 0.03 0.01 0.01 0.08
0.00 0.00 0.00 0.00 0.00 0.00 0.01 0.01 0.00 0.00 0.00 0.01 0.03 0.03 0.02 0.03 0.03 0.04 0.06 0.05 0.03 0.01 0.03 0.05 0.02 0.02 0.01 0.00 0.00 0.00 0.01 0.04 0.16 0.17 0.11 0.08 0.02 0.07
0.00 0.00 0.00 0.00 0.00 0.00 0.00 0.00 0.00 0.00 0.00 0.00 0.00 0.00 0.00 0.00 0.02 0.06 0.06 0.09 0.08 0.04 0.03 0.06 0.03 0.03 0.01 0.00 0.00 0.00 0.00 0.04 0.13 0.24 0.23 0.22 0.08 0.04
0.00 0.00 0.00 0.00 0.00 0.00 0.00 0.00 0.01 0.01 0.00 0.00 0.00 0.00 0.01 0.02 0.03 0.06 0.09 0.15 0.11 0.09 0.06 0.11 0.06 0.05 0.04 0.07 0.03 0.02 0.01 0.03 0.10 0.18 0.25 0.27 0.16 0.07
0.00 0.00 0.00 0.00 0.00 0.00 0.00 0.00 0.01 0.00 0.00 0.01 0.01 0.01 0.01 0.02 0.04 0.06 0.08 0.10 0.12 0.07 0.02 0.12 0.05 0.04 0.05 0.07 0.06 0.04 0.02 0.03 0.06 0.15 0.22 0.26 0.25 0.18
0.00 0.00 0.00 0.00 0.00 0.00 0.00 0.00 0.00 0.00 0.01 0.01 0.02 0.02 0.02 0.01 0.01 0.02 0.06 0.07 0.08 0.11 0.08 0.06 0.03 0.02 0.02 0.02 0.03 0.05 0.03 0.04 0.04 0.10 0.22 0.23 0.29 0.19
0.00 0.00 0.00 0.00 0.00 0.00 0.00 0.00 0.00 0.00 0.00 0.01 0.01 0.01 0.01 0.02 0.02 0.06 0.06 0.07 0.05 0.05 0.03 0.04 0.02 0.02 0.02 0.03 0.02 0.04 0.04 0.05 0.04 0.07 0.31 0.27 0.27 0.21
0.00 0.00 0.00 0.00 0.00 0.00 0.00 0.00 0.00 0.00 0.00 0.01 0.01 0.01 0.01 0.01 0.02 0.04 0.07 0.09 0.16 0.20 0.15 0.13 0.08 0.08 0.05 0.04 0.04 0.04 0.05 0.10 0.09 0.05 0.17 0.31 0.37 0.34
0.00 0.00 0.00 0.00 0.00 0.00 0.00 0.00 0.00 0.00 0.00 0.00 0.01 0.01 0.01 0.01 0.01 0.02 0.03 0.04 0.10 0.08 0.11 0.16 0.11 0.09 0.06 0.07 0.06 0.02 0.02 0.03 0.09 0.16 0.04 0.05 0.11 0.17
0.01 0.00 0.00 0.00 0.00 0.00 0.00 0.00 0.00 0.00 0.00 0.00 0.00 0.00 0.01 0.01 0.01 0.01 0.02 0.02 0.03 0.02 0.04 0.05 0.21 0.13 0.10 0.05 0.06 0.13 0.06 0.02 0.04 0.03 0.01 0.03 0.05 0.04
0.00 0.00 0.00 0.01 0.01 0.00 0.00 0.00 0.00 0.00 0.00 0.00 0.00 0.00 0.01 0.01 0.01 0.01 0.01 0.02 0.01 0.01 0.01 0.02 0.06 0.19 0.26 0.24 0.13 0.02 0.15 0.09 0.04 0.02 0.02 0.02 0.08 0.07
0.01 0.00 0.00 0.00 0.00 0.00 0.00 0.00 0.00 0.00 0.00 0.00 0.00 0.01 0.00 0.01 0.01 0.01 0.01 0.01 0.01 0.00 0.00 0.00 0.01 0.01 0.14 0.38 0.23 0.03 0.02 0.27 0.09 0.07 0.05 0.04 0.02 0.02
0.01 0.00 0.00 0.00 0.00 0.00 0.00 0.00 0.00 0.00 0.00 0.00 0.00 0.00 0.00 0.01 0.01 0.00 0.00 0.00 0.00 0.00 0.00 0.00 0.00 0.00 0.01 0.04 0.18 0.10 0.01 0.02 0.02 0.04 0.04 0.04 0.05 0.02
0.01 0.01 0.00 0.00 0.01 0.00 0.00 0.01 0.00 0.00 0.00 0.00 0.00 0.00 0.00 0.00 0.00 0.01 0.00 0.00 0.00 0.00 0.00 0.00 0.00 0.00 0.05 0.08 0.17 0.08 0.02 0.01 0.00 0.00 0.00 0.02 0.05 0.11
0.01 0.01 0.01 0.01 0.01 0.01 0.00 0.01 0.00 0.00 0.00 0.00 0.00 0.00 0.00 0.00 0.00 0.00 0.00 0.00 0.00 0.00 0.00 0.00 0.00 0.02 0.06 0.02 0.04 0.11 0.03 0.02 0.02 0.01 0.01 0.00 0.00 0.01